Weather History for Salem, OR

Change the Weather History Date:

Thursday, February 28, 2013

  Actual Average Record
Temperature  
Mean Temperature 53 °F 44 °F  
Max Temperature 58 °F 54 °F 72 °F (1968)
Min Temperature 48 °F 35 °F 15 °F (1971)
Degree Days  
Heating Degree Days 12 20  
Month to date heating degree days 592 614  
Since 1 July heating degree days 3059 3240  
Cooling Degree Days 0 0  
Month to date cooling degree days 0 0  
Year to date cooling degree days 0 0  
Growing Degree Days 2 (Base 50)    
Moisture  
Dew Point 50 °F    
Average Humidity 87    
Maximum Humidity 93    
Minimum Humidity 80    
Precipitation  
Precipitation 0.06 in 0.15 in 1.67 in (2011)
Month to date precipitation 1.42 4.56  
Year to date precipitation 3.05 10.52  
Snow  
Snow 0.00 in - - ()
Month to date snowfall 0.0  
Snow Depth 0.00 in    
Sea Level Pressure  
Sea Level Pressure 30.31 in    
Wind  
Wind Speed 11 mph (South)    
Max Wind Speed 20 mph    
Max Gust Speed 25 mph    
Visibility 9 miles    
Events Rain    
T = Trace of Precipitation, MM = Missing Value Source: NWS Daily Summary

Daily Weather History Graph

Daily Weather History Graph

Search for Another Location

Airport:

Trip Planner

Search our weather history database for the weather conditions in past years. The results will help you decide how hot, cold, wet, or windy it might be!

Date:

Astronomy

Feb. 28, 2013 Rise Set
Actual Time 6:50 AM PST 5:58 PM PST
Civil Twilight 6:21 AM PST 6:28 PM PST
Nautical Twilight 5:47 AM PST 7:02 PM PST
Astronomical Twilight 5:13 AM PST 7:36 PM PST
Moon 9:43 PM PST (2/28) 7:53 AM PST (2/28)
Length of Visible Light 12h 06m
Length of Day
11h 07m
Waning Gibbous, 90% of the Moon is Illuminated
Feb 28
Waning Gibbous
Mar 4
Last Quarter
Mar 11
New
Mar 19
First Quarter
Mar 27
Full

Hourly Weather History & Observations

Time (PST) Temp. Dew Point Humidity Pressure Visibility Wind Dir Wind Speed Gust Speed Precip Events Conditions
12:07 AM 48.2 °F 44.6 °F 87% 30.22 in 10.0 mi South 6.9 mph - N/A   Overcast
12:48 AM 48.2 °F 46.4 °F 93% 30.22 in 8.0 mi SSE 10.4 mph - 0.01 in Rain Light Rain
12:56 AM 48.0 °F 46.0 °F 93% 30.22 in 7.0 mi South 9.2 mph - 0.01 in Rain Light Rain
1:20 AM 48.2 °F 46.4 °F 93% 30.21 in 10.0 mi South 10.4 mph - 0.00 in   Overcast
1:56 AM 48.9 °F 46.0 °F 90% 30.22 in 10.0 mi South 8.1 mph - 0.00 in   Overcast
2:56 AM 48.9 °F 46.0 °F 90% 30.22 in 10.0 mi South 6.9 mph - 0.00 in   Overcast
3:56 AM 50.0 °F 46.0 °F 86% 30.22 in 10.0 mi South 13.8 mph - N/A   Overcast
4:56 AM 51.1 °F 46.9 °F 86% 30.22 in 10.0 mi South 13.8 mph 21.9 mph N/A   Overcast
5:56 AM 51.1 °F 46.9 °F 86% 30.24 in 10.0 mi South 10.4 mph - N/A   Overcast
6:56 AM 51.1 °F 48.0 °F 89% 30.25 in 10.0 mi South 11.5 mph - N/A   Overcast
7:56 AM 52.0 °F 48.0 °F 86% 30.26 in 10.0 mi South 16.1 mph - N/A   Overcast
8:56 AM 53.1 °F 48.9 °F 86% 30.28 in 10.0 mi South 12.7 mph - N/A   Overcast
9:56 AM 53.1 °F 48.9 °F 86% 30.30 in 10.0 mi South 15.0 mph 20.7 mph 0.01 in Rain Light Rain
10:56 AM 54.0 °F 50.0 °F 86% 30.32 in 10.0 mi South 15.0 mph 21.9 mph 0.01 in   Overcast
11:56 AM 55.9 °F 51.1 °F 84% 30.32 in 10.0 mi South 13.8 mph 21.9 mph N/A   Overcast
12:56 PM 57.0 °F 51.1 °F 81% 30.32 in 10.0 mi South 16.1 mph 25.3 mph N/A   Overcast
1:56 PM 57.0 °F 51.1 °F 81% 30.33 in 10.0 mi South 11.5 mph - N/A   Overcast
2:42 PM 55.4 °F 53.6 °F 94% 30.34 in 2.0 mi South 9.2 mph - 0.00 in   Overcast
2:56 PM 55.0 °F 53.1 °F 93% 30.35 in 1.5 mi South 8.1 mph - 0.01 in Rain Light Rain
3:01 PM 55.4 °F 53.6 °F 94% 30.35 in 1.5 mi South 6.9 mph - 0.00 in Rain Light Rain
3:56 PM 55.9 °F 54.0 °F 93% 30.35 in 10.0 mi South 11.5 mph - 0.02 in   Overcast
4:56 PM 55.0 °F 53.1 °F 93% 30.38 in 6.0 mi South 10.4 mph - N/A   Overcast
5:56 PM 55.0 °F 51.1 °F 86% 30.39 in 10.0 mi South 9.2 mph - N/A   Overcast
6:56 PM 54.0 °F 50.0 °F 86% 30.40 in 10.0 mi South 9.2 mph - N/A   Overcast
7:56 PM 53.1 °F 51.1 °F 93% 30.42 in 10.0 mi South 6.9 mph - N/A   Mostly Cloudy
8:56 PM 54.0 °F 51.1 °F 90% 30.43 in 10.0 mi South 9.2 mph - 0.00 in Rain Light Rain
9:56 PM 54.0 °F 51.1 °F 90% 30.43 in 10.0 mi South 11.5 mph - 0.00 in   Overcast
11:56 PM 53.1 °F 50.0 °F 89% 30.45 in 10.0 mi South 11.5 mph - N/A   Overcast